[TLELIST]

Mailing List Information:

  • This mailing list is a public mailing list - anyone may join or leave, at any time.

  • This mailing list is announce-only.

International Space Station (ISS) / Hubble Space Telescope (HST) / Chandra X-Ray Observatory Orbital Data via EMAIL

Privacy Policy:

Private list

Archives:

[TLELIST] Current TLEs

Sent April 25th 2017

HST 1 20580U 90037B 17113.84079444 +.00001160 +00000-0 +60894-4 0 9996 2 20580 028.4707 006.6230 0002554 311.2941 130.2146 15.08743433281982 ISS (ZARYA) 1 25544U 98067A 17113.90235694 +.00005875 +00000-0 +95778-4 0 9996 2 25544 051.6424 308.8830 0007089 084.6661 353.6210 15.54167047053311 CXO 1 25867U 99040B 17116.47700658 +.00000452 +00000-0 +00000-0 0 9994 2 25867 074.3128 291.0958 6831013 253.2563 000.1502 00.37803737015852 ____________________________________________________________________ These 2-Line ...

[TLELIST] Current TLEs

Sent April 24th 2017

HST 1 20580U 90037B 17112.91790102 +.00001074 +00000-0 +55553-4 0 9994 2 20580 028.4707 012.7205 0002499 299.7741 159.1374 15.08741521281842 ISS (ZARYA) 1 25544U 98067A 17112.88405880 +.00002035 +00000-0 +37993-4 0 9998 2 25544 051.6428 313.9569 0007141 083.9098 053.2400 15.54144987053150 CXO 1 25867U 99040B 17113.83324137 +.00000484 +00000-0 +00000-0 0 9990 2 25867 074.3229 291.1423 6831897 253.3395 000.1785 00.37809292004714 ____________________________________________________________________ These 2-Line ...

[TLELIST] Current TLEs

Sent April 23rd 2017

HST 1 20580U 90037B 17111.92502944 +.00000896 +00000-0 +44469-4 0 9994 2 20580 028.4707 019.2806 0002516 288.1583 167.3228 15.08739050281693 ISS (ZARYA) 1 25544U 98067A 17111.92164981 +.00002043 +00000-0 +38111-4 0 9998 2 25544 051.6434 318.7537 0007142 081.8895 067.0957 15.54139906053007 CXO 1 25867U 99040B 17113.83324137 +.00000484 +00000-0 +00000-0 0 9990 2 25867 074.3229 291.1423 6831897 253.3395 000.1785 00.37809292004714 ____________________________________________________________________ These 2-Line ...

[TLELIST] Current TLEs

Sent April 22nd 2017

HST 1 20580U 90037B 17110.93232984 +.00000769 +00000-0 +36610-4 0 9996 2 20580 028.4707 025.8396 0002533 276.6135 176.3826 15.08737215281543 ISS (ZARYA) 1 25544U 98067A 17110.89130321 +.00002961 +00000-0 +51958-4 0 9997 2 25544 051.6431 323.8890 0007207 078.5454 061.9507 15.54138613052848 CXO 1 25867U 99040B 17111.18951240 +.00000493 +00000-0 +00000-0 0 9997 2 25867 074.3382 291.1755 6834500 253.4333 000.2216 00.37806774004698 ____________________________________________________________________ These 2-Line ...

[TLELIST] Current TLEs

Sent April 21st 2017

HST 1 20580U 90037B 17109.21943700 +.00000653 +00000-0 +29360-4 0 9996 2 20580 028.4706 037.1570 0002548 256.8635 234.2116 15.08734755281286 ISS (ZARYA) 1 25544U 98067A 17109.92096824 +.00002787 +00000-0 +49344-4 0 9990 2 25544 051.6434 328.7262 0007243 075.4107 032.5712 15.54131334052697 CXO 1 25867U 99040B 17111.18951240 +.00000493 +00000-0 +00000-0 0 9997 2 25867 074.3382 291.1755 6834500 253.4333 000.2216 00.37806774004698 ____________________________________________________________________ These 2-Line ...

[TLELIST] Current TLEs

Sent April 20th 2017

HST 1 20580U 90037B 17108.94524727 +.00000663 +00000-0 +30016-4 0 9990 2 20580 028.4706 038.9686 0002552 253.6161 185.2634 15.08734585281244 ISS (ZARYA) 1 25544U 98067A 17108.89682041 +.00002831 +00000-0 +50020-4 0 9990 2 25544 051.6438 333.8309 0007185 071.6711 062.5473 15.54124690052531 CXO 1 25867U 99040B 17111.18951240 +.00000493 +00000-0 +00000-0 0 9997 2 25867 074.3382 291.1755 6834500 253.4333 000.2216 00.37806774004698 ____________________________________________________________________ These 2-Line ...

[TLELIST] Current TLEs

Sent April 19th 2017

HST 1 20580U 90037B 17107.30184981 +.00000550 +00000-0 +22944-4 0 9999 2 20580 028.4704 049.8269 0002571 234.9287 260.2533 15.08732542280996 ISS (ZARYA) 1 25544U 98067A 17107.86235943 +.00003125 +00000-0 +54473-4 0 9994 2 25544 051.6439 338.9875 0007146 068.3950 034.3493 15.54118772052376 CXO 1 25867U 99040B 17108.54460270 +.00000467 +00000-0 +00000-0 0 9992 2 25867 074.3510 291.2159 6838631 253.5188 000.1257 00.37803410004685 ____________________________________________________________________ These 2-Line ...

[TLELIST] Current TLEs

Sent April 18th 2017

HST 1 20580U 90037B 17106.30978443 +.00000548 +00000-0 +22821-4 0 9993 2 20580 028.4702 056.3817 0002589 223.7531 272.4151 15.08731701280844 ISS (ZARYA) 1 25544U 98067A 17106.82871304 +.00003396 +00000-0 +58567-4 0 9994 2 25544 051.6433 344.1410 0007114 064.0450 011.8096 15.54112492052212 CXO 1 25867U 99040B 17108.54460270 +.00000467 +00000-0 +00000-0 0 9992 2 25867 074.3510 291.2159 6838631 253.5188 000.1257 00.37803410004685 ____________________________________________________________________ These 2-Line ...

[TLELIST] Current TLEs

Sent April 17th 2017

HST 1 20580U 90037B 17105.58939487 +.00000554 +00000-0 +23197-4 0 9991 2 20580 028.4702 061.1415 0002615 215.6579 320.0114 15.08731139280736 ISS (ZARYA) 1 25544U 98067A 17105.87060019 +.00003156 +00000-0 +54969-4 0 9997 2 25544 051.6434 348.9165 0006992 060.4905 051.3661 15.54103949052067 CXO 1 25867U 99040B 17108.54460270 +.00000467 +00000-0 +00000-0 0 9992 2 25867 074.3510 291.2159 6838631 253.5188 000.1257 00.37803410004685 ____________________________________________________________________ These 2-Line ...

[TLELIST] Current TLEs

Sent April 16th 2017

HST 1 20580U 90037B 17104.56487670 +.00000611 +00000-0 +26768-4 0 9991 2 20580 028.4720 067.9025 0002747 200.9475 159.1055 15.08730936280666 ISS (ZARYA) 1 25544U 98067A 17104.90477568 +.00003390 +00000-0 +58515-4 0 9992 2 25544 051.6431 353.7315 0007021 057.0920 047.6236 15.54097387051915 CXO 1 25867U 99040B 17105.89884912 +.00000409 +00000-0 +00000-0 0 9996 2 25867 074.3647 291.2687 6842620 253.5833 359.9405 00.37803896004680 ____________________________________________________________________ These 2-Line ...

< < Previous

Index

 

this list's archives:

(archive rss , atom rss/atom )

Administration